User: anonymous   Login
Location: Unspecified
(0.0000°N, 0.0000°E)
Time: 00:16:08
(UTC+00:00)
Language:

PRATHAM - Orbit

View from above orbital plane
View from above orbital plane
View from above satellite
View from above satellite

Ground track
Ground track

The orbit data is extracted from the following two-line orbital elements,

1 41783U 16059A   18048.78370680 +.00000067 +00000-0 +22420-4 0  9991
2 41783 098.1341 112.1785 0034896 109.9964 250.5000 14.62900745074500
Epoch (UTC): 17 February 2018 18:48:32
Eccentricity: 0.0034896
inclination: 98.1341°
perigee height: 659 km
apogee height: 708 km
right ascension of ascending node: 112.1785°
argument of perigee: 109.9964°
revolutions per day: 14.62900745
mean anomaly at epoch: 250.5000°
orbit number at epoch: 7450

The dashed part of the orbit path shows where the satellite is in the earth's shadow,  

DLR